Overview Statistics Trail Chart Weather Telemetry Raw packets
 

This is the latest recevied weather packets stored in our database for station/object WX0ABE-13. If no packets are shown the sender has not sent any weather packets the latest 10 day(s).

<< 100 101 102 103 104 105 106 >>
Time Temp. Humidity Pressure Rain* Wind** Luminosity Snow
1787614290 35° C 24% 1017.5 hPa 0 mm - 178 W/m² -
1787613986 35.56° C 23% 1017.5 hPa 0 mm - 228 W/m² -
1787613682 35° C 25% 1017.4 hPa 0 mm - 294 W/m² -
1787613382 34.44° C 24% 1017.5 hPa 0 mm - 331 W/m² -
1787613078 35° C 24% 1017.6 hPa 0 mm - 228 W/m² -
1787612775 35.56° C 25% 1017.5 hPa 0 mm - 113 W/m² -
1787612471 35° C 24% 1017.5 hPa 0 mm - 199 W/m² -
1787612166 35° C 24% 1017.5 hPa 0 mm - 153 W/m² -
1787611862 34.44° C 24% 1017.5 hPa 0 mm - 155 W/m² -
1787611558 34.44° C 24% 1017.7 hPa 0 mm - 143 W/m² -
1787611254 34.44° C 25% 1017.8 hPa 0 mm - 150 W/m² -
1787610949 34.44° C 26% 1017.6 hPa 0 mm - 179 W/m² -
1787610645 34.44° C 27% 1017.8 hPa 0 mm - 181 W/m² -
1787610340 33.89° C 24% 1017.7 hPa 0 mm - 465 W/m² -
1787610038 34.44° C 26% 1017.7 hPa 0 mm - 119 W/m² -
1787609734 35° C 25% 1017.5 hPa 0 mm - 112 W/m² -
1787609434 34.44° C 25% 1017.6 hPa 0 mm - 472 W/m² -
1787609133 34.44° C 23% 1017.7 hPa 0 mm - 255 W/m² -
1787608829 34.44° C 26% 1017.6 hPa 0 mm - 98 W/m² -
1787608528 35° C 25% 1017.8 hPa 0 mm - 113 W/m² -
1787608224 35° C 24% 1017.8 hPa 0 mm - 129 W/m² -
1787607921 36.67° C 22% 1017.7 hPa 0 mm - 140 W/m² -
1787607617 36.67° C 24% 1017.8 hPa 0 mm - 516 W/m² -
1787607314 36.67° C 25% 1017.8 hPa 0 mm - 507 W/m² -
1787607011 36.11° C 25% 1018.1 hPa 0 mm - 389 W/m² -

* Rain latest hour (hover to see other rain measurements)
** Current wind speed in m/s (hover to see current wind gust speed)